Regional Weather Roundup
Issued by NWS

Home | Current Version | Previous Version | Graphics & Text | Print | Product List | Glossary On
Versions: 1 2 3 4 5 6 7 8 9 10 11 12 13 14 15 16 17 18 19 20 21 22 23 24 25 26 27 28 29 30 31 32 33 34 35 36 37 38 39 40 41 42 43 44 45 46 47 48 49 50
000
ASUS45 KBOU 262207
RWRCO

WEATHER ROUNDUP FOR COLORADO
NATIONAL WEATHER SERVICE DENVER/BOULDER CO
400 PM MDT TUE MAY 26 2015

NOTE: "FAIR" INDICATES FEW OR NO CLOUDS BELOW 12000 FEET WITH NO
SIGNIFICANT WEATHER AND/OR OBSTRUCTIONS TO VISIBILITY.

COZ001>005-013-030-031-262300-
...NORTHWEST COLORADO...

CITY           SKY/WX    TMP DP  RH WIND       PRES   REMARKS
CRAIG          PTSUNNY   60  44  55 S6        30.08F
HAYDEN         PTSUNNY   52  43  71 E9        30.11F
MEEKER         LGT RAIN  55  43  63 CALM      30.10F
MOUNT WERNER   NOT AVBL
STEAMBOAT SPGS CLOUDY    46  43  91 E7        30.16S
WALDEN         CLOUDY    52  32  46 SW17G23   30.17R
$$

COZ006>008-011-262300-
...WEST CENTRAL VALLEYS...

CITY           SKY/WX    TMP DP  RH WIND       PRES   REMARKS
GRAND JUNCTION TSTM      59  49  69 SW16      30.04R
MONTROSE       LGT RAIN  58  46  64 NW8       30.14R
EAGLE          PTSUNNY   61  43  51 SW17G26   30.13R
RIFLE          CLOUDY    58  49  72 E17       30.07S
DELTA          CLOUDY    58  46  62 MISG      30.13R
NUCLA          CLOUDY    55  43  62 S9G22     30.16R
$$

COZ017>023-064>068-262300-
...SOUTHWEST COLORADO...

CITY           SKY/WX    TMP DP  RH WIND       PRES   REMARKS
DURANGO        MOSUNNY   67  38  34 SW13      30.12F
CORTEZ         PTSUNNY   73  39  29 S13       30.09S
PAGOSA SPRINGS MOSUNNY   60  38  45 E8        30.19S THUNDER
TELLURIDE      CLOUDY    53  37  54 SW5       30.25F
WOLF CREEK PAS NOT AVBL
$$

COZ009-010-012-014-032>034-037-058>063-262300-
...CENTRAL COLORADO...

CITY           SKY/WX    TMP DP  RH WIND       PRES   REMARKS
ASPEN          CLOUDY    53  40  61 N12G21    30.15R
BUENA VISTA    PTSUNNY   64  26  23 W14G21    30.11S
COPPER MTN     CLOUDY    41  32  70 W10G18    30.33S
BERTHOUD PASS  HAZE      32  25  74 N9G17     30.36R THUNDER VSB<1/4
COTTONWOOD PAS PTSUNNY   54  25  32 SW18G28   30.22S
GUNNISON       PTSUNNY   59  34  38 W13       30.18R
KREMMLING      CLOUDY    52  41  66 S7        30.17S
LEADVILLE      CLOUDY    51  31  46 NW10G18   30.21S
MONARCH PASS   PTSUNNY   41  27  56 W24G31    30.43F
SALIDA         PTSUNNY   69  31  24 S10G17    30.15F
SUNLIGHT       TSTM      37  36  93 CALM      30.32S
WILKERSON PASS MOSUNNY   50  27  40 W5        30.33S
$$

COZ069>075-262300-
...SAN LUIS VALLEY/SANGRE DE CRISTO MOUNTAINS...

CITY           SKY/WX    TMP DP  RH WIND       PRES   REMARKS
ALAMOSA        MOSUNNY   65  31  28 SE12      30.11F
LA VETA PASS   MOSUNNY  N/A N/A N/A MISG      30.27F
SAGUACHE       LGT RAIN  61  34  36 N7        30.14S
$$

COZ035-036-038>040-262300-
...NORTHERN COLORADO FRONT RANGE...

CITY           SKY/WX    TMP DP  RH WIND       PRES   REMARKS
DENVER INTL AP PTSUNNY   67  44  43 E5        30.02R
DMNS CITY PARK   N/A     63  43  48 NE12G21   30.01S
AURORA         PTSUNNY   67  40  37 NW13      30.03S
FRONT RANGE AP PTSUNNY   68  41  37 SE5       30.02F
ERIE MUNI ARPT PTSUNNY   67  45  44 S14       30.01F
BOULDER MUN AP PTSUNNY   66  43  42 S6        30.01F
CENTENNIAL     PTSUNNY   68  37  32 NW5       30.02F
BROOMFIELD     PTSUNNY   57  46  67 N12       30.04S
FORT COLLINS   MOSUNNY   66  45  45 S5        30.00S
LONGMONT       MOSUNNY   68  46  45 SE5       30.03S
$$

COZ041-046-047-076>085-087-088-262300-
...PIKES PEAK/PALMER DIVIDE AND SOUTHERN FOOTHILLS...

CITY           SKY/WX    TMP DP  RH WIND       PRES   REMARKS
COLO. SPRINGS  PTSUNNY   64  41  42 SE10      30.07F THUNDER
A. F. ACADEMY  MOSUNNY   64  40  42 S9G16     30.07S
ELLICOTT       PTSUNNY  N/A N/A N/A S10G17    30.05F THUNDER
FALCON         CLOUDY    64  38  39 S8G17     30.11S
FORT CARSON    PTSUNNY   63  44  49 SE8       30.04S THUNDER
LIMON          MOSUNNY   67  43  41 S7        30.04F
MONUMENT HILL  PTSUNNY   63  41  45 NE10      30.10F
TRINIDAD       MOSUNNY   70  42  36 SE8       30.05F
$$

COZ042>045-048>051-090-091-262300-
...NORTHEAST COLORADO...

CITY           SKY/WX    TMP DP  RH WIND       PRES   REMARKS
GREELEY ARPT   MOSUNNY   70  45  40 SE8       30.00S
AKRON          MOSUNNY   68  45  43 VRB7      30.01F
BURLINGTON     MOSUNNY   70  49  47 E8        30.01S
WRAY           SUNNY     71  48  43 CALM      29.99F
STERLING       LGT RAIN  66  54  63 E8        30.00S
HOLYOKE        MOSUNNY   70  50  49 CALM      30.01R
FORT MORGAN    PTSUNNY   72  41  32 CALM      30.00S
$$

COZ086-089-092>099-262300-
...SOUTHEAST COLORADO...

CITY           SKY/WX    TMP DP  RH WIND       PRES   REMARKS
PUEBLO         SUNNY     73  42  32 SE12G20   29.97F
LA JUNTA       SUNNY     75  48  38 SE9       29.98F
LAMAR          MOSUNNY   73  49  42 NE5       29.97F
SPRINGFIELD      N/A     71  45  39 SE5       30.01F
$$


USA.gov is the U.S. government's official web portal to all federal, state and local government web resources and services.